Location: Bothwell
(41.7170°N, 112.2589°W)
Time: 11:31:37
(UTC+00:00)

SR - All Passes

Search period start: 15 May 2026 00:00
Search period end: 25 May 2026 00:00
Orbit: 568 x 852 km, 66.7° (Epoch: 14 May)

Date Brightness Start Highest point End Pass type
(mag) Time Alt. Az. Time Alt. Az. Time Alt. Az.
15 May - 00:07:37 10° NW 00:13:12 53° WSW 00:18:45 10° S daylight
15 May - 12:56:38 10° ESE 12:58:11 11° ESE 12:59:46 10° E daylight
15 May - 14:34:11 10° SSW 14:38:57 82° WNW 14:44:10 10° NNE daylight
15 May - 16:18:41 10° WNW 16:21:34 15° NW 16:24:36 10° N daylight
15 May - 21:31:55 10° N 21:35:28 17° NE 21:39:02 10° ENE daylight
15 May - 23:12:21 10° NNW 23:18:07 76° ENE 23:23:52 10° SE daylight
16 May - 00:55:38 10° WNW 00:59:11 17° WSW 01:02:44 10° SW daylight
16 May - 13:39:29 10° S 13:43:56 43° ESE 13:48:48 10° NE daylight
16 May - 15:21:40 10° WSW 15:25:49 27° NW 15:30:18 10° N daylight
16 May - 22:17:27 10° NNW 22:22:47 39° NE 22:28:09 10° ESE daylight
16 May - 23:59:15 10° NW 00:04:29 36° WSW 00:09:39 10° S daylight
17 May - 12:45:58 10° SSE 12:49:14 19° ESE 12:52:41 10° ENE daylight
17 May - 14:25:39 10° SW 14:30:22 55° NW 14:35:32 10° NNE daylight
17 May - 16:11:42 10° NW 16:13:23 11° NNW 16:15:06 10° NNW daylight
17 May - 21:22:50 10° N 21:27:12 22° NE 21:31:35 10° E daylight
17 May - 23:03:46 10° NNW 23:09:31 76° WSW 23:15:15 10° SSE daylight
18 May - 00:49:01 10° W 00:50:17 11° W 00:51:33 10° WSW daylight
18 May - 13:30:30 10° SSW 13:35:12 68° ESE 13:40:23 10° NE daylight
18 May - 15:13:49 10° W 15:17:29 20° NW 15:21:22 10° N daylight
18 May - 20:28:51 10° N 20:31:20 13° NE 20:33:49 10° ENE daylight
18 May - 22:08:40 10° NNW 22:14:19 55° NE 22:19:57 10° SE daylight
18 May - 23:51:07 10° NW 23:55:41 25° WSW 00:00:13 10° SSW daylight
19 May - 12:36:17 10° SSE 12:40:21 29° ESE 12:44:44 10° NE daylight
19 May - 14:17:20 10° WSW 14:21:52 37° NW 14:26:47 10° NNE daylight
19 May - 21:13:53 10° NNW 21:18:52 29° NE 21:23:50 10° ESE daylight
19 May - 22:55:16 10° NW 23:00:51 52° WSW 23:06:23 10° S daylight
20 May - 11:43:57 10° SE 11:45:46 12° ESE 11:47:38 10° E daylight
20 May - 13:21:44 10° SSW 13:26:33 80° WNW 13:31:50 10° NNE daylight
20 May - 15:06:17 10° WNW 15:09:12 15° NW 15:12:16 10° N daylight
20 May - 20:19:30 10° N 20:23:08 17° NE 20:26:46 10° ENE daylight
20 May - 21:59:59 10° NNW 22:05:46 78° ENE 22:11:31 10° SE daylight
20 May - 23:43:20 10° WNW 23:46:49 17° WSW 23:50:17 10° SW daylight
21 May - 12:27:01 10° S 12:31:32 44° ESE 12:36:29 10° NE daylight
21 May - 14:09:15 10° WSW 14:13:27 27° NW 14:17:58 10° N daylight
21 May - 21:05:04 10° NNW 21:10:27 40° NE 21:15:49 10° ESE daylight
21 May - 22:46:55 10° NW 22:52:07 35° WSW 22:57:15 10° S daylight
22 May - 11:33:27 10° SSE 11:36:50 19° ESE 11:40:24 10° ENE daylight
22 May - 13:13:13 10° SW 13:17:58 54° NW 13:23:11 10° NNE daylight
22 May - 14:59:19 10° NW 15:01:01 11° NNW 15:02:45 10° NNW daylight
22 May - 20:10:26 10° N 20:14:51 22° NE 20:19:17 10° E daylight
22 May - 21:51:24 10° NNW 21:57:10 75° WSW 22:02:52 10° SSE daylight
22 May - 23:36:58 10° W 23:37:54 10° W 23:38:49 10° WSW daylight
23 May - 12:18:02 10° SSW 12:22:48 69° ESE 12:28:03 10° NE daylight
23 May - 14:01:25 10° W 14:05:07 20° NW 14:09:01 10° N daylight
23 May - 19:16:24 10° N 19:18:59 13° NE 19:21:34 10° ENE daylight
23 May - 20:56:17 10° NNW 21:01:58 56° NE 21:07:35 10° SE daylight
23 May - 22:38:47 10° NW 22:43:19 24° WSW 22:47:47 10° SSW daylight
24 May - 11:23:48 10° S 11:27:57 30° ESE 11:32:25 10° NE visible
24 May - 13:04:55 10° WSW 13:09:29 37° NW 13:14:26 10° NNE daylight
24 May - 20:01:30 10° NNW 20:06:30 30° NE 20:11:30 10° ESE daylight
24 May - 21:42:54 10° NW 21:48:29 51° WSW 21:53:58 10° S daylight
